{"data":{"norad_id":62706,"epoch":"2026-05-25T03:51:36.702144Z","epoch_age_seconds":58198,"freshness":"FRESH","line1":"1 62706U 25009DB  26145.16084146  .00007542  00000+0  57440-3 0  9995","line2":"2 62706  97.6974 227.4890 0000786 331.3490  28.7691 15.02358478 96709","mean_motion":15.02358478,"eccentricity":7.86e-5,"inclination_deg":97.6974,"raan_deg":227.489,"arg_perigee_deg":331.349,"mean_anomaly_deg":28.7691,"bstar":0.0005744,"rev_number":9670,"period_min":95.849294365283,"perigee_km":559.08069235299,"apogee_km":560.17130869667,"semimajor_km":6937.7630005248,"source":"CELESTRAK","updated_at":"2026-05-25T13:38:13.538025Z"}}